Location: Goettingen
(51.5300°N, 9.9433°E)
Time: 20:06:33
(UTC+02:00)

X-37B - Pass Details

Date: 30 September 2021
Orbit: 385 x 389 km, 45.0° (Epoch: 13 October)

Event Time Altitude Azimuth Distance (km) Brightness Sun altitude
Exits shadow 05:39:22 23° 191° (SSW) 868 2.1 -16.2°
Maximum altitude 05:39:29 23° 188° (S) 866 2.1 -16.2°
Drops below altitude 10° 05:42:06 10° 133° (SE) 1,412 3.8 -15.8°
Sets 05:44:24 0° 118° (ESE) 2,267 5.2 -15.5°
